#timestamp,LO_Frequency,Hit,StdDev 
1700632815.3,286047003.8,N
1700632835.2,286047005.4,N
1700632855.0,286047000.7,N
1700632855.9,286047000.7,N
1700632875.7,286047002.8,N
1700632895.6,286047007.8,N
1700632915.4,286047006.4,N
1700632935.3,286046999.9,N
1700632955.1,286047001.8,N
1700632956.0,286047001.8,N
1700632975.8,286047007.0,N
1700632995.7,286047004.6,N
1700633015.5,286046998.2,N
1700633035.4,286047001.1,N
1700633055.2,286047001.8,N
1700633075.0,286047012.1,N
1700633075.9,286047012.1,N
1700633095.8,286047011.3,N
1700633115.6,286047006.7,N
1700633135.4,286047002.1,N
1700633155.3,286047002.3,N
1700633175.1,286047003.9,N
1700633195.9,286047005.6,N
1700633215.7,286047004.8,N
1700633235.5,286047010.5,N
1700633255.4,286047010.6,N
1700633275.2,286047013.7,Y
1700633295.1,286047011.7,P
1700633296.0,286047011.7,P
1700633315.8,286047009.7,P
1700633335.6,286047009.3,Y
1700633355.5,286046995.9,P
1700633375.3,286046988.6,N
1700633395.2,286046993.3,N
1700633415.9,286047002.4,N
1700633435.7,286047003.0,N
1700633455.6,286047003.7,N
1700633475.4,286047004.8,N
1700633495.2,286047001.5,N
1700633515.1,286046997.4,N
1700633516.0,286046997.4,N
1700633535.8,286046995.5,N
1700633555.7,286046993.6,N
1700633575.5,286046995.1,N
1700633595.3,286046992.2,N
1700633615.2,286046989.5,N
1700633635.0,286046992.6,N
1700633635.9,286046992.6,N
1700633655.7,286046993.8,N
1700633675.6,286046997.7,N
1700633695.4,286046995.5,N
1700633715.3,286046996.6,N
1700633735.1,286046994.5,N
1700633736.0,286046994.5,N
1700633755.8,286046994.5,N
1700633775.7,286046997.2,N
1700633795.5,286046999.3,N
1700633815.3,286046998.6,N
1700633835.2,286047004.4,N
1700633855.0,286047003.5,N
1700633855.9,286047003.5,N
1700633875.8,286047000.8,N
1700633895.6,286046996.1,N
1700633915.4,286046991.8,N
1700633935.3,286046994.4,N
1700633955.1,286046991.5,N
1700633975.9,286046996.4,N
1700633995.7,286046997.6,N
1700634015.5,286046997.6,N
1700634035.4,286046996.2,N
1700634055.2,286046990.1,N
1700634075.0,286046992.2,N
1700634075.9,286046992.2,N
1700634095.8,286046997.4,N
1700634115.6,286046998.9,N
1700634135.5,286046993.9,N
1700634155.3,286046990.7,N
1700634175.1,286046997.0,N
1700634195.9,286047004.4,N
1700634215.7,286047001.9,N
1700634235.6,286047003.5,N
1700634255.4,286046998.9,N
1700634275.2,286046997.8,N
1700634295.1,286046992.7,N
1700634296.0,286046992.7,N
1700634315.8,286046990.1,N
1700634335.6,286046997.8,N
1700634355.5,286047000.3,N
1700634375.3,286047004.2,N
1700634395.2,286047007.1,N
1700634415.9,286047017.1,Y
1700634435.7,286047025.5,P
1700634455.6,286047028.1,N
1700634475.4,286047024.9,N
1700634495.2,286047020.4,N
1700634515.1,286047012.1,N
1700634516.0,286047012.1,N
1700634535.8,286047010.4,N
1700634555.7,286047005.1,N
1700634575.5,286047002.0,N
1700634595.3,286047002.4,N
1700634615.2,286047003.6,N
1700634635.0,286047001.4,N
1700634635.9,286047001.4,N
1700634655.8,286047006.0,N
1700634675.6,286047004.9,N
1700634695.4,286047001.7,N
1700634715.3,286047003.9,N
1700634735.1,286047004.2,N
1700634755.9,286046999.7,N
1700634775.7,286046999.3,N
1700634795.5,286046997.8,N
1700634815.4,286046995.0,N
1700634835.2,286046997.0,N
1700634855.0,286046995.4,N
1700634855.9,286046995.4,N
1700634875.8,286046994.4,N
1700634895.6,286046995.7,N
1700634915.5,286046992.8,N
1700634935.3,286046986.9,N
1700634955.1,286046990.0,N
1700634975.9,286046992.0,N
1700634995.7,286046997.5,N
1700635015.6,286046998.4,N
1700635035.4,286046999.2,N
1700635055.2,286046996.5,N
1700635075.1,286046998.6,N
1700635076.0,286046998.6,N
1700635095.8,286047000.1,N
1700635115.6,286047004.2,N
1700635135.5,286047007.1,N
1700635155.3,286046995.3,N
1700635175.2,286046994.3,N
1700635195.9,286046995.7,N
1700635215.7,286046996.0,N
1700635235.6,286046994.4,N
1700635255.4,286046990.3,N
1700635275.3,286046992.7,N
1700635295.1,286046995.5,N
1700635296.0,286046995.5,N
1700635315.8,286046999.4,N
1700635335.7,286046999.1,N
1700635355.5,286047011.9,Y
1700635375.4,286047001.6,P
1700635395.2,286047006.0,N
1700635415.0,286047001.4,N
1700635415.9,286047001.4,N
1700635435.8,286046999.7,N
1700635455.6,286047007.5,N
1700635475.4,286047011.3,Y
1700635495.3,286047013.8,P
1700635515.1,286047005.8,N
1700635535.9,286047002.8,N
1700635555.7,286047002.3,N
1700635575.5,286047003.5,N
1700635595.4,286047005.6,N
1700635615.2,286047001.6,N
1700635635.0,286046998.1,N
1700635635.9,286046998.1,N
1700635655.8,286046997.2,N
1700635675.6,286046996.5,N
1700635695.5,286046997.3,N
1700635715.3,286046995.4,N
1700635735.1,286046996.5,N
1700635755.9,286047006.6,N
1700635775.7,286047010.8,N
1700635795.5,286047003.4,N
1700635815.4,286046998.2,N
1700635835.2,286046993.8,N
1700635855.1,286046994.9,N
1700635856.0,286046994.9,N
1700635875.8,286046998.5,N
1700635895.6,286047004.1,N
1700635915.5,286047003.3,N
1700635935.3,286047005.3,N
1700635955.1,286047003.0,N
1700635975.9,286047008.2,N
1700635995.7,286047019.3,Y
1700636015.6,286047014.2,P
1700636035.4,286047007.7,N
1700636055.2,286047008.6,N
1700636075.1,286047008.9,N
1700636076.0,286047008.9,N
1700636095.8,286047007.3,N
1700636115.7,286046999.7,N
1700636135.5,286047001.4,N
1700636155.3,286047000.6,N
1700636175.2,286047001.9,N
1700636195.0,286047003.4,N
1700636195.9,286047003.4,N
1700636215.7,286047003.3,N
1700636235.6,286047007.4,N
1700636255.4,286047006.6,N
1700636275.3,286047002.9,N
1700636295.1,286047001.5,N
1700636296.0,286047001.5,N
1700636315.8,286047005.7,N
1700636335.7,286047005.8,N
1700636355.5,286047000.0,N
1700636375.4,286047005.3,N
1700636395.2,286047007.9,N
